GW1310 Weather Reports


time (UTC)temp
C
wind
direction
speed
KPH
gust
KPH
rain 1hr
cm
rain 24hr
cm
rain mn
cm
humidity
%
barometer
mb
20260508141842 12 323 8.0 24.1 0.00 0.38 0.00 66 1017.1
20260508140842 12 334 6.4 19.3 0.00 0.38 0.00 65 1017.1
20260508135842 12 319 9.7 24.1 0.00 0.38 0.00 62 1017.0
20260508134902 13 309 6.4 12.9 0.00 0.38 0.00 60 1017.0
20260508133842 13 289 3.2 12.9 0.00 0.38 0.00 52 1016.9
20260508132842 12 202 4.8 9.7 0.00 0.38 0.00 55 1017.0
20260508131842 13 192 6.4 12.9 0.00 0.38 0.00 52 1016.9
20260508130842 12 213 6.4 9.7 0.00 0.38 0.00 52 1016.8
20260508125841 12 218 4.8 11.3 0.00 0.38 0.00 56 1016.9
20260508124841 12 195 9.7 14.5 0.00 0.38 0.00 61 1016.9
20260508123841 12 203 8.0 16.1 0.00 0.38 0.00 62 1016.9
20260508122902 12 203 9.7 16.1 0.00 0.38 0.00 64 1016.8
20260508121841 12 202 9.7 17.7 0.00 0.38 0.00 66 1016.9
20260508120841 12 201 12.9 20.9 0.00 0.38 0.00 63 1016.8
20260508115841 12 196 11.3 17.7 0.00 0.38 0.00 57 1016.7
20260508114841 13 188 1.6 9.7 0.00 0.38 0.00 53 1016.7
20260508113901 13 173 4.8 8.0 0.00 0.38 0.00 56 1016.6
20260508112841 12 198 6.4 11.3 0.00 0.38 0.00 59 1016.6
20260508111841 12 201 12.9 20.9 0.00 0.38 0.00 61 1016.6
20260508110841 13 154 6.4 16.1 0.00 0.38 0.00 53 1016.5
20260508105841 12 100 4.8 9.7 0.00 0.38 0.00 53 1016.5
20260508104842 13 118 6.4 14.5 0.00 0.38 0.00 52 1016.4
20260508103841 12 105 9.7 16.1 0.00 0.38 0.00 52 1016.4
20260508102841 12 89 9.7 14.5 0.00 0.38 0.00 51 1016.3
20260508101841 12 111 8.0 14.5 0.00 0.38 0.00 49 1016.4
20260508100841 12 102 8.0 16.1 0.00 0.38 0.00 54 1016.4
20260508095841 12 88 8.0 14.5 0.00 0.38 0.00 57 1016.4
20260508094841 12 89 9.7 16.1 0.00 0.38 0.00 61 1016.4
20260508093901 12 94 6.4 12.9 0.00 0.38 0.00 64 1016.5
20260508092901 11 92 8.0 16.1 0.00 0.38 0.00 68 1016.5
20260508091840 11 112 8.0 17.7 0.00 0.38 0.00 67 1016.3
20260508090841 11 101 8.0 14.5 0.00 0.38 0.00 68 1016.3
20260508085846 11 93 11.3 19.3 0.00 0.38 0.00 71 1016.1
20260508084920 11 89 12.9 22.5 0.00 0.38 0.00 75 1016.1
20260508083841 11 90 11.3 20.9 0.00 0.38 0.00 74 1016.0
20260508082928 11 99 8.0 17.7 0.00 0.38 0.00 72 1016.0
20260508081840 11 101 6.4 14.5 0.00 0.38 0.00 72 1016.0
20260508080840 10 95 8.0 16.1 0.00 0.38 0.00 74 1016.0
20260508075840 10 88 9.7 14.5 0.00 0.38 0.00 76 1016.1
20260508074840 10 113 8.0 14.5 0.00 0.38 0.00 78 1016.0
20260508073840 10 111 4.8 9.7 0.00 0.38 0.00 78 1016.0
20260508072900 10 150 3.2 6.4 0.00 0.38 0.00 82 1015.9
20260508072000 10 138 3.2 4.8 0.00 0.38 0.00 86 1015.7
20260508070840 10 265 1.6 3.2 0.00 0.38 0.00 88 1015.6
20260508065840 10 197 1.6 3.2 0.00 0.38 0.00 91 1015.5
20260508064840 9 31 1.6 3.2 0.00 0.38 0.00 93 1015.4
20260508063840 9 23 0.0 1.6 0.00 0.38 0.00 96 1015.3
20260508062900 9 327 1.6 3.2 0.00 0.38 0.00 98 1015.3
20260508061900 8 332 1.6 3.2 0.00 0.38 0.00 98 1015.2
20260508060840 8 37 3.2 4.8 0.00 0.38 0.00 98 1015.0
20260508055840 8 49 1.6 4.8 0.00 0.38 0.00 99 1015.1
20260508054905 8 287 1.6 1.6 0.00 0.38 0.00 98 1014.9
20260508053840 8 307 1.6 4.8 0.00 0.38 0.00 98 1014.9
20260508052840 7 260 4.8 6.4 0.00 0.38 0.00 97 1014.9
20260508051840 8 256 1.6 4.8 0.00 0.38 0.00 97 1014.8
20260508050840 8 109 3.2 6.4 0.00 0.38 0.00 98 1014.7
20260508045839 8 124 3.2 4.8 0.00 0.38 0.00 99 1014.7
20260508044844 8 251 1.6 1.6 0.00 0.38 0.00 99 1014.7
20260508043840 8 330 1.6 3.2 0.00 0.38 0.00 100 1014.7
20260508042840 7 253 1.6 3.2 0.00 0.38 0.00 99 1014.7
20260508041840 7 300 1.6 3.2 0.00 0.38 0.00 99 1014.7
20260508040840 7 308 1.6 3.2 0.00 0.38 0.00 99 1014.7
20260508035830 7 276 1.6 3.2 0.00 0.38 0.00 98 1014.6
20260508034829 7 5 1.6 4.8 0.00 0.38 0.00 98 1014.6
20260508033829 7 43 1.6 4.8 0.00 0.38 0.00 98 1014.6
20260508032829 7 7 1.6 3.2 0.03 0.38 0.00 97 1014.6
20260508031829 7 270 3.2 4.8 0.03 0.38 0.00 97 1014.6
20260508030829 7 317 1.6 3.2 0.03 0.38 0.00 97 1014.6
20260508025829 8 280 1.6 3.2 0.03 0.38 0.38 97 1014.7
20260508024829 8 26 1.6 3.2 0.03 0.38 0.38 97 1014.7
20260508023829 8 286 1.6 1.6 0.03 0.38 0.38 96 1014.7
20260508022829 8 9 1.6 4.8 0.00 0.36 0.36 96 1014.7
20260508021829 8 333 1.6 3.2 0.00 0.36 0.36 96 1014.6
20260508020828 8 320 1.6 1.6 0.00 0.36 0.36 96 1014.7
20260508015829 8 207 1.6 1.6 0.00 0.36 0.36 96 1014.7
20260508014829 8 252 1.6 4.8 0.00 0.36 0.36 95 1014.7
20260508013829 8 333 1.6 4.8 0.00 0.36 0.36 95 1014.8
20260508012828 8 328 1.6 8.0 0.00 0.36 0.36 95 1014.7
20260508011828 8 299 1.6 4.8 0.00 0.36 0.36 95 1014.8
20260508010829 8 322 3.2 4.8 0.00 0.36 0.36 95 1014.9
20260508005828 8 321 3.2 6.4 0.00 0.36 0.36 95 1014.9
20260508004828 8 317 3.2 6.4 0.00 0.36 0.36 94 1014.9
20260508003828 9 302 0.0 1.6 0.00 0.36 0.36 94 1014.9
20260508002849 9 341 1.6 3.2 0.00 0.36 0.36 93 1014.9
20260508001828 9 33 1.6 3.2 0.00 0.36 0.36 93 1014.9
20260508000828 9 300 1.6 1.6 0.00 0.36 0.36 93 1015.0
20260507235848 9 116 1.6 3.2 0.00 0.36 0.36 93 1015.0
20260507234828 9 5 3.2 6.4 0.03 0.36 0.36 93 1015.0
20260507233828 9 24 3.2 4.8 0.08 0.36 0.36 93 1015.0
20260507232828 9 32 1.6 4.8 0.15 0.36 0.36 93 1015.0
20260507231828 10 127 3.2 6.4 0.23 0.36 0.36 93 1015.0
20260507230829 10 28 3.2 4.8 0.23 0.36 0.36 92 1015.0
20260507225828 10 1 1.6 3.2 0.23 0.36 0.36 91 1014.9
20260507224828 10 28 1.6 3.2 0.30 0.33 0.33 91 1014.9
20260507223848 10 214 4.8 9.7 0.23 0.28 0.28 90 1015.0
20260507222848 9 198 6.4 12.9 0.15 0.20 0.20 90 1015.0
20260507221828 10 248 3.2 8.0 0.10 0.13 0.13 89 1015.0
20260507220827 9 357 1.6 3.2 0.10 0.13 0.13 88 1015.0
20260507215827 9 357 1.6 6.4 0.08 0.13 0.13 88 1015.0
20260507214827 9 321 3.2 9.7 0.00 0.05 0.05 88 1014.9
20260507213828 10 21 3.2 4.8 0.00 0.05 0.05 88 1014.9
20260507212831 10 340 3.2 8.0 0.00 0.05 0.05 86 1014.8
20260507211831 10 358 1.6 4.8 0.00 0.05 0.05 86 1014.8
20260507210831 10 16 3.2 4.8 0.00 0.05 0.05 85 1014.7
20260507205831 10 31 4.8 6.4 0.00 0.05 0.05 83 1014.7
20260507204831 10 30 3.2 6.4 0.00 0.05 0.05 82 1014.5
20260507203832 10 63 1.6 4.8 0.00 0.05 0.05 82 1014.5
20260507202911 10 90 3.2 9.7 0.03 0.05 0.05 84 1014.4
20260507201831 10 41 4.8 9.7 0.05 0.05 0.05 86 1014.3
20260507200831 10 356 4.8 8.0 0.05 0.05 0.05 84 1014.3
20260507195831 10 351 4.8 9.7 0.05 0.05 0.05 83 1014.3
20260507194831 10 334 4.8 12.9 0.05 0.05 0.05 79 1014.2
20260507193831 10 314 4.8 8.0 0.05 0.05 0.05 74 1014.2
20260507192831 11 307 6.4 12.9 0.03 0.03 0.03 68 1014.2
20260507191831 11 208 8.0 12.9 0.00 0.00 0.00 61 1014.0
20260507190831 11 200 6.4 12.9 0.00 0.00 0.00 63 1014.0
20260507185836 11 201 8.0 14.5 0.00 0.00 0.00 64 1014.0
20260507184836 11 206 8.0 16.1 0.00 0.00 0.00 64 1013.9
20260507183830 11 198 9.7 14.5 0.00 0.00 0.00 63 1014.0
20260507182830 11 205 9.7 19.3 0.00 0.00 0.00 64 1014.0
20260507181831 11 207 9.7 17.7 0.00 0.00 0.00 65 1014.0
20260507180851 11 199 11.3 22.5 0.00 0.00 0.00 65 1013.9
20260507175831 11 190 14.5 22.5 0.00 0.00 0.00 65 1013.9
20260507174835 11 190 12.9 19.3 0.00 0.00 0.00 66 1013.9
20260507173831 12 192 12.9 24.1 0.00 0.00 0.00 64 1013.8
20260507172830 12 191 9.7 16.1 0.00 0.00 0.00 62 1013.8
20260507171830 12 218 8.0 19.3 0.00 0.00 0.00 61 1013.8
20260507170830 12 199 9.7 20.9 0.00 0.00 0.00 62 1013.8
20260507165830 12 195 8.0 16.1 0.00 0.00 0.00 61 1013.9
20260507164850 12 203 8.0 17.7 0.00 0.00 0.00 60 1014.0
20260507163850 12 202 11.3 22.5 0.00 0.00 0.00 59 1013.9
20260507162830 12 196 12.9 22.5 0.00 0.00 0.00 58 1013.8
20260507161830 12 188 14.5 24.1 0.00 0.00 0.00 59 1013.7
20260507160830 12 184 14.5 22.5 0.00 0.00 0.00 58 1013.8
20260507155830 12 192 14.5 25.7 0.00 0.00 0.00 58 1013.7
20260507154830 12 196 12.9 27.4 0.00 0.00 0.00 55 1013.8
20260507153830 12 204 12.9 25.7 0.00 0.00 0.00 50 1013.8
20260507152830 12 208 14.5 25.7 0.00 0.00 0.00 47 1013.8
20260507151830 12 194 12.9 20.9 0.00 0.00 0.00 49 1013.9
20260507150850 12 206 12.9 29.0 0.00 0.00 0.00 48 1014.0
20260507145850 12 217 12.9 20.9 0.00 0.00 0.00 55 1014.0
20260507144850 12 204 11.3 27.4 0.00 0.00 0.00 54 1014.0
20260507143834 12 227 9.7 17.7 0.00 0.00 0.00 55 1014.1
20260507142850 11 190 14.5 30.6 0.00 0.00 0.00 61 1014.2